Regional Weather Roundup
Issued by NWS

Home | Current Version | Previous Version | Graphics & Text | Print | Product List | Glossary On
Versions: 1 2 3 4 5 6 7 8 9 10 11 12 13 14 15 16 17 18 19 20 21 22 23 24 25 26 27 28
000
ASUS45 KTFX 250910
RWRMT
MONTANA REGIONAL WEATHER ROUNDUP
NATIONAL WEATHER SERVICE GREAT FALLS MT
300 AM MDT THU AUG 25 2016

NOTE: "FAIR" INDICATES FEW OR NO CLOUDS BELOW 12000 FEET WITH NO
SIGNIFICANT WEATHER AND/OR OBSTRUCTIONS TO VISIBILITY.

MTZ001>007-043-251000-
WEST OF THE DIVIDE

CITY           SKY/WX    TMP DP  RH WIND       PRES   REMARKS
KALISPELL      CLEAR     40  35  83 N6        30.27S
MISSOULA       CLEAR     54  38  54 E7        30.28F
BUTTE          CLEAR     36  29  75 S5        30.36S
MULLAN PASS    CLEAR     50  31  48 SE6       30.33S
DEER LODGE       N/A     39  32  75 CALM      30.36F
EUREKA           N/A     46  34  61 CALM      30.27S
HAMILTON         N/A     46  39  76 SE3       30.28F
LIBBY            N/A     45  36  70 SE3       30.27S
PLAINS           N/A     47  38  71 CALM      30.23S
RONAN            N/A     45  39  79 N2        30.28S
THOMPSON FALLS   N/A     46  39  76 SE2       30.27S
$$

MTZ008-052>055-251000-
SOUTHWEST MONTANA

CITY           SKY/WX    TMP DP  RH WIND       PRES   REMARKS
BOZEMAN        CLEAR     47  37  68 E3        30.34S
DILLON         CLEAR     42  30  62 E9        30.32S
W YELLOWSTONE  PTCLDY    36  30  80 CALM      30.36S
ENNIS          CLEAR     41  32  70 CALM      30.38R
THREE FORKS      N/A     36  28  73 CALM      30.29S
TWIN BRIDGES     N/A     48  31  52 N9        30.27S
$$

MTZ009-010-012-014-046-048-049-054-251000-
EAST SLOPES AND CENTRAL MONTANA

CITY           SKY/WX    TMP DP  RH WIND       PRES   REMARKS
CUT BANK       CLEAR     40  37  89 W6        30.30F
GREAT FALLS    CLEAR     44  38  79 S10       30.30F
MALMSTROM AFB  CLEAR     45  41  85 MISG      30.30S
HELENA         CLOUDY    46  35  65 CALM      30.31F
CHOTEAU          N/A     43  37  81 W3        30.32S
CONRAD           N/A     41  40  96 CALM      30.28F
$$

MTZ011-013-016-021-045-047-050-051-251000-
NORTH CENTRAL MONTANA

CITY           SKY/WX    TMP DP  RH WIND       PRES   REMARKS
HAVRE          CLEAR     41  40  96 W6        30.28R
LEWISTOWN      CLOUDY    45  40  82 SE5       30.31F
N BAR RANCH      N/A     43  37  81 W6        30.33F
CHINOOK          N/A     45  43  93 W3        30.27S
$$

MTZ017>020-022>027-061-062-251000-
NORTHEAST MONTANA

CITY           SKY/WX    TMP DP  RH WIND       PRES   REMARKS
GLASGOW        MOCLDY    51  43  74 W8        30.23S
JORDAN           N/A     52  42  69 W5        30.26F
SIDNEY         CLOUDY    55  47  74 NW12      30.19
WOLF POINT     LGT RAIN  54  50  86 S5        30.23S
POPLAR           N/A     55  46  71 W5        30.22S
$$

MTZ028>42-056>058-251000-
SOUTHCENTRAL AND SOUTHEAST MONTANA

CITY           SKY/WX    TMP DP  RH WIND       PRES   REMARKS
BAKER          MOCLDY    50  43  77 NW13      30.24R
BILLINGS       CLEAR     51  40  65 SW5       30.31F
LIVINGSTON     CLOUDY    41  37  86 W5        30.34S
MILES CITY     PTCLDY    50  43  77 W6        30.26S
FORSYTH          N/A     52  45  76 CALM      30.28S
LAUREL           N/A     46  34  63 CALM      30.27F
ROUNDUP          N/A     49  38  65 S6        30.20S
$$

REGIONAL REPORTS...DAKOTAS

CITY           SKY/WX    TMP DP  RH WIND       PRES   REMARKS
WILLISTON      CLOUDY    54  48  80 NW14      30.16F
MINOT          CLOUDY    54  51  90 W18       30.05R
DICKINSON      CLEAR     48  45  89 NW13      30.15S
CROSBY         CLOUDY    52  50  93 NW9       30.17R
WATFORD CITY   CLOUDY    50  50 100 NW9       30.16S
BISMARCK       CLOUDY    57  47  69 NW14G24   30.09R
GRAND FORKS    MOCLDY    58  54  86 W7        29.90S
FARGO          CLEAR     56  51  84 SW10      29.97R
BUFFALO SD       N/A     48  43  82 NW14      30.16R
RAPID CITY     CLOUDY    55  42  61 NW16      30.23S
$$

REGIONAL REPORTS...WYOMING/IDAHO/WASHINGTON

CITY           SKY/WX    TMP DP  RH WIND       PRES   REMARKS
GILLETTE       CLOUDY    51  41  68 CALM      30.31F
SHERIDAN       CLOUDY    54  41  61 W7        30.32R
BUFFALO WY     CLOUDY    51  38  60 N6        30.35R
CODY           CLOUDY    48  39  71 NW7       30.34F
YELLOWSTONE LA   N/A     30  30 100 NW3       30.39F
IDAHO FALLS    CLEAR     42  34  73 N8        30.23S
SALMON         CLEAR     54  34  47 N12       30.25S
BOISE          CLEAR     59  37  44 SE9       30.07R
SPOKANE        CLEAR     61  39  44 NE5       30.19S
$$

REGIONAL REPORTS...ALBERTA

CITY           SKY/WX    TMP DP  RH WIND       PRES   REMARKS
EDMONTON       PTCLDY    55  52  88 SW7       30.19F
CALGARY        MOCLDY    50  43  76 E2        30.26S
LETHBRIDGE     CLEAR     43  39  87 SW6       30.26F
MEDICINE HAT   CLEAR     48  45  87 SW7       30.23F
WATERTON GATE    N/A     41  37  87 SW6         N/A
CARDSTON         N/A     45  36  70 SW5         N/A
MILK RIVER       N/A     41  39  93 W5          N/A
$$

REGIONAL REPORTS...SASKATCHEWAN

CITY           SKY/WX    TMP DP  RH WIND       PRES   REMARKS
SWIFT CURRENT  CLEAR     48  45  87 W10       30.19F
REGINA         CLEAR     43  43 100 W9        30.14S
SASKATOON      CLEAR     43  43 100 SW2       30.14S
CYPRESS HILLS    N/A     46  39  76 W3          N/A
VAL MARIE        N/A     43  39  87 W2          N/A
ROCKGLEN         N/A     48  45  87 NW6         N/A
$$




USA.gov is the U.S. government's official web portal to all federal, state and local government web resources and services.